Home   Weather   Erkrath   Past weeks

Flag for Germany Past Weather in Erkrath, North Rhine-Westphalia, Germany — Yesterday and Last 2 Weeks

Now
79 °F

Passing clouds.


Feels Like: 79 °F
Forecast: 54 / 75 °F
Wind: 12 mph from Southwest

Location: Duesseldorf

Current Time: Aug 31, 2016 at 4:29:44 PM

Latest Report: Aug 31, 2016 at 3:50 PM


Visibility: N/A

Pressure: 30.09 "Hg

Humidity: 42%

Dew Point: 54 °F

Location of ErkrathLocation

Past Weather in Erkrath — Graph

°F

Erkrath Temperature Yesterday

Maximum temperature yesterday: 77 °F (at 4:50 PM)
Minimum temperature yesterday: 50 °F (at 7:20 AM)
Average temperature yesterday: 64 °F

High & Low Weather Summary for the Past Weeks

 TemperatureHumidityPressure
High91 °F (Aug 25, 3:20 PM)100% (Aug 18, 5:20 AM)30.33 "Hg (Aug 18, 5:20 AM)
Low48 °F (Aug 31, 5:50 AM)26% (Aug 25, 3:20 PM)29.77 "Hg (Aug 18, 2:50 PM)
Average70 °F67%30.04 "Hg
* Reported Aug 16 3:20 PM — Aug 31 3:20 PM, Erkrath, Weather by CustomWeather, © 2016

Note: Actual official high and low records may vary slightly from our data, if they occured in-between our weather recording intervals... More about our weather records

Advertising

Erkrath Weather History for the Previous 24 Hours

Scroll right to see more
 ConditionsComfort  
Time TempWeatherWind HumidityBarometerVisibility
3:20 PM
Wed, Aug 31
79 °FSunny.13 mph39%30.09 "Hg10 mi
2:50 PM79 °FPassing clouds.10 mph39%30.09 "HgN/A
2:20 PM79 °FPassing clouds.10 mph42%30.12 "HgN/A
1:50 PM79 °FPassing clouds.7 mph39%30.12 "HgN/A
1:20 PM77 °FSunny.3 mph44%30.12 "Hg10 mi
12:50 PM77 °FPassing clouds.7 mph42%30.12 "HgN/A
12:20 PM75 °FPassing clouds.8 mph41%30.12 "HgN/A
11:50 AM73 °FPassing clouds.7 mph44%30.15 "HgN/A
11:20 AM72 °FPassing clouds.8 mph47%30.15 "HgN/A
10:50 AM70 °FPassing clouds.8 mph50%30.15 "HgN/A
10:20 AM70 °FPassing clouds.7 mph50%30.15 "HgN/A
9:50 AM68 °FPassing clouds.10 mph49%30.15 "HgN/A
9:20 AM66 °FSunny.12 mph52%30.15 "Hg10 mi
8:50 AM64 °FSunny.9 mph56%30.15 "Hg10 mi
8:20 AM63 °FPassing clouds.7 mph59%30.15 "HgN/A
7:50 AM59 °FSunny.1 mph72%30.15 "Hg10 mi
7:20 AM52 °FClear.1 mph88%30.15 "Hg10 mi
6:50 AM52 °FClear.1 mph88%30.15 "Hg10 mi
6:20 AM52 °FPassing clouds.3 mph88%30.15 "HgN/A
5:50 AM48 °FClear.3 mph100%30.15 "Hg10 mi
5:20 AM50 °FClear.3 mph94%30.15 "Hg10 mi
4:50 AM52 °FClear.3 mph94%30.15 "Hg10 mi
4:20 AM50 °FClear.3 mph94%30.18 "Hg10 mi
3:50 AM52 °FClear.3 mph88%30.18 "Hg10 mi
3:20 AM52 °FClear.3 mph94%30.18 "Hg10 mi
2:50 AM52 °FClear.2 mph88%30.18 "Hg10 mi
2:20 AM55 °FClear.3 mph82%30.18 "Hg10 mi
1:50 AM55 °FClear.2 mph82%30.18 "Hg10 mi
1:20 AM55 °FClear.2 mph88%30.21 "Hg10 mi
12:50 AM57 °FClear.2 mph77%30.21 "Hg10 mi
12:20 AM57 °FClear.6 mph77%30.21 "Hg10 mi
11:50 PM
Tue, Aug 30
59 °FClear.6 mph72%30.21 "Hg10 mi
11:20 PM61 °FClear.6 mph68%30.21 "Hg10 mi
10:50 PM63 °FClear.8 mph64%30.21 "Hg10 mi
10:20 PM63 °FClear.7 mph64%30.21 "Hg10 mi
9:50 PM63 °FClear.6 mph64%30.21 "Hg10 mi
9:20 PM64 °FSunny.6 mph60%30.21 "Hg10 mi
8:50 PM68 °FSunny.6 mph49%30.21 "Hg10 mi
8:20 PM70 °FSunny.6 mph43%30.21 "Hg10 mi
7:50 PM72 °FSunny.6 mph41%30.21 "Hg10 mi
7:20 PM73 °FSunny.7 mph38%30.21 "Hg10 mi
6:50 PM75 °FSunny.8 mph36%30.21 "Hg10 mi
6:20 PM75 °FPassing clouds.7 mph34%30.24 "HgN/A
5:50 PM75 °FPassing clouds.7 mph34%30.24 "HgN/A
5:20 PM75 °FPassing clouds.7 mph36%30.24 "HgN/A
4:50 PM77 °FSunny.5 mph34%30.24 "Hg10 mi
4:20 PM75 °FPassing clouds.9 mph39%30.24 "HgN/A
Weather by CustomWeather, © 2016

See weather overviewHow to use our weather pages